Regional Weather Roundup
Issued by NWS Cleveland, OH

Home | Current Version | Previous Version | Text Only | Print | Product List | Glossary Off
Versions: 1 2 3 4 5 6 7 8 9 10 11 12 13 14 15 16 17 18 19 20 21 22 23 24 25 26 27 28 29 30 31 32 33 34 35 36 37 38 39 40 41 42 43 44 45 46 47 48 49 50

000
ASUS41 KCLE 270010
RWRCLE
OHIO REGIONAL WEATHER ROUNDUP
NATIONAL WEATHER SERVICE WILMINGTON, OH
800 PM EDT THU MAY 26 2016

NOTE: "FAIR" INDICATES FEW OR NO CLOUDS BELOW 12,000 FEET WITH NO
SIGNIFICANT WEATHER AND/OR OBSTRUCTIONS TO VISIBILITY.

OHZ001>008-015>018-024>027-034-035-043-044-270100-
   NORTHWEST OHIO

CITY           SKY/WX    TMP DP  RH WIND       PRES   REMARKS
DEFIANCE       FAIR      81  64  56 S8G18     29.89F
FINDLAY        FAIR      80  63  55 S15       29.91F
TOLEDO EXPRESS FAIR      81  63  54 SW8       29.89F
TOLEDO EXEC    FAIR      83  64  52 SW15      29.90F
LIMA           FAIR      78  65  63 S9        29.93F
$$

OHZ009>014-019>023-028>033-038-089-270100-
   NORTHEAST OHIO

CITY           SKY/WX    TMP DP  RH WIND       PRES   REMARKS
CLE-HOPKINS    MOCLDY    82  63  52 S13       29.96S
CLE-LAKEFRONT  FAIR      82  63  52 S8G18     29.92S
CUY CO. ARPT   MOCLDY    82  66  57 S9        29.95S
LORAIN-ELYRIA  MOCLDY    79  64  60 SW10      29.95R
ASHTABULA      FAIR      78  62  57 S7        29.97S
AKRON-CANTON   MOCLDY    77  64  64 SW14      29.99R
WOOSTER        CLOUDY    77  65  66 SW13      29.99R
MANSFIELD      FAIR      76  66  71 S14       29.98S
YOUNGSTOWN     MOCLDY    77  63  61 S5        29.99R
$$

OHZ042-051>053-060>062-070>072-077>081-270100-
  SOUTHWEST OHIO

CITY           SKY/WX    TMP DP  RH WIND       PRES   REMARKS
CINC-COVINGTON CLOUDY    69  66  90 S7        29.98F
CINC-LUNKEN    FAIR      69  66  90 S7        29.98F
HAMILTON       FAIR      73  65  75 S6        29.97F
DAYTON         MOCLDY    73  62  68 S10       29.96F
WRIGHT-PAT AFB MOCLDY    74  63  69 S9        29.95F
DAYTON GENERAL FAIR      72  61  68 S9        29.96F
WILMINGTON     FAIR      71  65  81 S6        29.99S
$$

OHZ036-037-039>041-045>050-054>059-063>069-073>076-082>088-270100-
  CENTRAL AND SOUTHEAST OHIO

CITY           SKY/WX    TMP DP  RH WIND       PRES   REMARKS
COLUMBUS       CLOUDY    77  66  68 S10       29.98S
OSU AIRPORT    CLOUDY    78  67  68 S12G20    29.97S
BOLTON FIELD   MOCLDY    76  67  74 S13G20    29.99S
RICKENBACK AFB MOCLDY    76  66  71 S10G20    29.98S
NEWARK         FAIR      78  66  66 S9        29.98F
MARION         FAIR      78  65  63 S17       29.96S
LANCASTER      FAIR      76  66  71 S10       30.00F
ZANESVILLE     FAIR      77  65  66 SW8       30.02R
NEW PHILLY     FAIR      79  64  60 SW8       30.01R
$$




USA.gov is the U.S. government's official web portal to all federal, state and local government web resources and services.